IGO522D VABB-VAPO

Flight info

Callsign IGO522D
Flight time 0h 21m
Altitude 11000
Route BBB W28 PPN
Aircraft A21N/M-SDE2E3FGHIRWXY/LB1

Departure

Time 2026-04-24 09:25
Airport Chhatrapati Shivaji Maharaj International Airport (VABB)

Arrival

Time 2026-04-24 09:47
Airport Pune International Airport (VAPO)
Time Latitude Longitude Altitude Speed Heading
2026-04-24 09:09 19.09157 72.85409 49 ft 0 kts 359°
2026-04-24 09:16 19.09155 72.85409 49 ft 1 kts 359°
2026-04-24 09:16 19.09145 72.85410 49 ft 2 kts 357°
2026-04-24 09:16 19.09130 72.85410 45 ft 2 kts 356°
2026-04-24 09:17 19.09115 72.85412 48 ft 2 kts 14°
2026-04-24 09:17 19.09101 72.85407 49 ft 2 kts 40°
2026-04-24 09:17 19.09089 72.85396 47 ft 2 kts 77°
2026-04-24 09:17 19.09088 72.85394 47 ft 0 kts 87°
2026-04-24 09:18 19.09087 72.85393 47 ft 0 kts 92°
2026-04-24 09:18 19.09086 72.85392 47 ft 0 kts 103°
2026-04-24 09:19 19.09087 72.85414 47 ft 9 kts 88°
2026-04-24 09:20 19.09093 72.85539 49 ft 21 kts 88°
2026-04-24 09:20 19.09078 72.85591 48 ft 11 kts 131°
2026-04-24 09:20 19.09051 72.85605 49 ft 2 kts 162°
2026-04-24 09:20 19.09028 72.85686 49 ft 22 kts 87°
2026-04-24 09:21 19.09032 72.85881 49 ft 29 kts 91°
2026-04-24 09:21 19.09034 72.86087 49 ft 28 kts 89°
2026-04-24 09:21 19.09036 72.86252 49 ft 20 kts 89°
2026-04-24 09:21 19.09040 72.86418 49 ft 26 kts 88°
2026-04-24 09:22 19.09045 72.86625 50 ft 31 kts 89°
2026-04-24 09:22 19.09045 72.86867 50 ft 33 kts 90°
2026-04-24 09:22 19.09045 72.87020 50 ft 22 kts 89°
2026-04-24 09:22 19.09050 72.87204 50 ft 28 kts 88°
2026-04-24 09:23 19.09055 72.87431 50 ft 33 kts 90°
2026-04-24 09:23 19.09055 72.87640 45 ft 16 kts 90°
2026-04-24 09:23 19.09053 72.87772 47 ft 14 kts 100°
2026-04-24 09:23 19.08986 72.87818 48 ft 9 kts 183°
2026-04-24 09:24 19.08917 72.87797 48 ft 13 kts 200°
2026-04-24 09:24 19.08884 72.87709 48 ft 13 kts 269°
2026-04-24 09:24 19.08884 72.87674 48 ft 20 kts 271°
2026-04-24 09:24 19.08883 72.87133 49 ft 121 kts 267°
2026-04-24 09:25 19.08867 72.85996 289 ft 172 kts 270°
2026-04-24 09:25 19.08858 72.84680 1065 ft 195 kts 274°
2026-04-24 09:25 19.08888 72.83094 1474 ft 236 kts 275°
2026-04-24 09:25 19.08867 72.81229 2089 ft 267 kts 261°
2026-04-24 09:26 19.08072 72.79429 3239 ft 277 kts 232°
2026-04-24 09:26 19.06538 72.78171 4419 ft 285 kts 204°
2026-04-24 09:26 19.04599 72.77735 5400 ft 288 kts 177°
2026-04-24 09:26 19.02652 72.78231 6116 ft 291 kts 150°
2026-04-24 09:27 19.01144 72.79565 6758 ft 286 kts 123°
2026-04-24 09:27 19.00385 72.81464 7416 ft 281 kts 96°
2026-04-24 09:27 19.00506 72.83536 8087 ft 284 kts 77°
2026-04-24 09:27 19.01023 72.85557 8769 ft 285 kts 73°
2026-04-24 09:28 19.01632 72.87570 9466 ft 291 kts 73°
2026-04-24 09:28 19.02267 72.89620 10119 ft 300 kts 73°
2026-04-24 09:28 19.02930 72.91799 10627 ft 324 kts 74°
2026-04-24 09:28 19.03409 72.94175 10756 ft 332 kts 88°
2026-04-24 09:29 19.03232 72.96651 10776 ft 340 kts 103°
2026-04-24 09:29 19.02552 72.98972 10773 ft 330 kts 112°
2026-04-24 09:29 19.01611 73.01189 10772 ft 332 kts 117°
2026-04-24 09:29 19.00550 73.03353 10772 ft 330 kts 118°
2026-04-24 09:30 18.99452 73.05486 10772 ft 332 kts 119°
2026-04-24 09:30 18.98331 73.07643 10771 ft 332 kts 119°
2026-04-24 09:30 18.97230 73.09769 10769 ft 328 kts 119°
2026-04-24 09:30 18.96119 73.11931 10771 ft 340 kts 118°
2026-04-24 09:31 18.95011 73.14102 10769 ft 328 kts 118°
2026-04-24 09:31 18.93936 73.16210 10779 ft 327 kts 118°
2026-04-24 09:31 18.92849 73.18342 10771 ft 330 kts 118°
2026-04-24 09:31 18.91761 73.20479 10777 ft 329 kts 118°
2026-04-24 09:32 18.90680 73.22598 10778 ft 327 kts 118°
2026-04-24 09:32 18.89612 73.24686 10785 ft 329 kts 118°
2026-04-24 09:32 18.88523 73.26814 10787 ft 330 kts 118°
2026-04-24 09:32 18.87427 73.28950 10791 ft 328 kts 118°
2026-04-24 09:33 18.86348 73.31070 10793 ft 327 kts 115°
2026-04-24 09:33 18.85459 73.33291 10797 ft 328 kts 111°
2026-04-24 09:33 18.84630 73.35505 10750 ft 326 kts 112°
2026-04-24 09:33 18.83796 73.37679 10375 ft 313 kts 113°
2026-04-24 09:34 18.82970 73.39772 9940 ft 302 kts 114°
2026-04-24 09:34 18.82158 73.41780 9449 ft 291 kts 114°
2026-04-24 09:34 18.81381 73.43687 8962 ft 282 kts 114°
2026-04-24 09:34 18.80611 73.45577 8468 ft 279 kts 114°
2026-04-24 09:35 18.79833 73.47490 8007 ft 286 kts 113°
2026-04-24 09:35 18.79046 73.49424 7525 ft 285 kts 113°
2026-04-24 09:35 18.78272 73.51346 7057 ft 286 kts 112°
2026-04-24 09:35 18.77508 73.53262 6612 ft 287 kts 112°
2026-04-24 09:36 18.76729 73.55211 6137 ft 287 kts 113°
2026-04-24 09:36 18.76206 73.56498 5824 ft 286 kts 112°
2026-04-24 09:36 18.75805 73.57503 5602 ft 285 kts 112°
2026-04-24 09:36 18.75044 73.59434 5302 ft 284 kts 112°
2026-04-24 09:37 18.74297 73.61333 4999 ft 282 kts 112°
2026-04-24 09:37 18.73531 73.63253 4721 ft 282 kts 112°
2026-04-24 09:37 18.72769 73.65155 4534 ft 280 kts 112°
2026-04-24 09:37 18.72023 73.67031 4485 ft 282 kts 112°
2026-04-24 09:38 18.71259 73.68940 4493 ft 281 kts 112°
2026-04-24 09:38 18.70505 73.70837 4465 ft 278 kts 112°
2026-04-24 09:38 18.69754 73.72734 4498 ft 282 kts 112°
2026-04-24 09:38 18.68997 73.74627 4478 ft 277 kts 112°
2026-04-24 09:39 18.68246 73.76502 4493 ft 280 kts 112°
2026-04-24 09:39 18.67492 73.78387 4464 ft 277 kts 112°
2026-04-24 09:39 18.66733 73.80230 4481 ft 279 kts 118°
2026-04-24 09:39 18.65664 73.81875 4461 ft 262 kts 128°
2026-04-24 09:40 18.64357 73.83068 4360 ft 243 kts 159°
2026-04-24 09:40 18.62701 73.83065 4354 ft 242 kts 202°
2026-04-24 09:40 18.61432 73.81921 4577 ft 245 kts 240°
2026-04-24 09:40 18.61104 73.80218 4750 ft 242 kts 280°
2026-04-24 09:41 18.61494 73.78465 5248 ft 244 kts 287°
2026-04-24 09:41 18.62013 73.76764 5693 ft 245 kts 291°
2026-04-24 09:41 18.62573 73.75051 5578 ft 245 kts 287°
2026-04-24 09:41 18.62678 73.73289 5329 ft 245 kts 264°
2026-04-24 09:42 18.62033 73.71654 5113 ft 245 kts 231°
2026-04-24 09:42 18.60580 73.70792 4860 ft 239 kts 186°
2026-04-24 09:42 18.59072 73.71268 4351 ft 229 kts 138°
2026-04-24 09:42 18.58357 73.72666 3916 ft 215 kts 97°
2026-04-24 09:43 18.58399 73.74279 3845 ft 220 kts 84°
2026-04-24 09:43 18.58539 73.75836 3867 ft 211 kts 85°
2026-04-24 09:43 18.58603 73.77326 3744 ft 197 kts 88°
2026-04-24 09:43 18.58564 73.78748 3596 ft 193 kts 95°
2026-04-24 09:44 18.58481 73.80169 3461 ft 193 kts 90°
2026-04-24 09:44 18.58500 73.81544 3221 ft 184 kts 89°
2026-04-24 09:44 18.58499 73.82822 3033 ft 168 kts 89°
2026-04-24 09:44 18.58500 73.83993 2871 ft 150 kts 89°
2026-04-24 09:45 18.58494 73.85127 2769 ft 155 kts 89°
2026-04-24 09:45 18.58519 73.86264 2610 ft 154 kts 89°
2026-04-24 09:45 18.58455 73.87385 2452 ft 154 kts 93°
2026-04-24 09:45 18.58410 73.88501 2240 ft 153 kts 90°
2026-04-24 09:46 18.58370 73.89624 2081 ft 152 kts 93°
2026-04-24 09:46 18.58295 73.90733 1969 ft 152 kts 92°
2026-04-24 09:46 18.58240 73.91805 1925 ft 132 kts 94°
2026-04-24 09:46 18.58204 73.92470 1925 ft 53 kts 94°
2026-04-24 09:47 18.58173 73.92700 1925 ft 27 kts 113°
2026-04-24 09:47 18.58091 73.92818 1925 ft 3 kts 136°
2026-04-24 09:47 18.58042 73.92846 1927 ft 12 kts 173°
2026-04-24 09:47 18.58017 73.92770 1925 ft 16 kts 276°
2026-04-24 09:48 18.58025 73.92612 1924 ft 27 kts 273°
2026-04-24 09:48 18.58042 73.92402 1925 ft 26 kts 276°
2026-04-24 09:48 18.58056 73.92265 1925 ft 21 kts 274°
2026-04-24 09:48 18.58066 73.91998 1924 ft 34 kts 272°
2026-04-24 09:49 18.58082 73.91737 1924 ft 22 kts 272°
2026-04-24 09:49 18.58084 73.91690 1924 ft 11 kts 272°
2026-04-24 09:49 18.58093 73.91561 1925 ft 23 kts 275°
2026-04-24 09:49 18.58100 73.91361 1924 ft 31 kts 266°
2026-04-24 09:50 18.58110 73.91265 1925 ft 5 kts 274°
2026-04-24 09:50 18.58076 73.91208 1925 ft 12 kts 207°
2026-04-24 09:50 18.58018 73.91203 1925 ft 3 kts 196°
2026-04-24 09:50 18.58012 73.91195 1925 ft 3 kts 229°
2026-04-24 09:51 18.58016 73.91114 1925 ft 18 kts 296°
2026-04-24 09:51 18.58033 73.91089 1924 ft 6 kts 303°
2026-04-24 09:51 18.58042 73.91027 1925 ft 10 kts 271°
2026-04-24 09:51 18.58031 73.91015 1925 ft 2 kts 222°
2026-04-24 09:52 18.58003 73.91009 1924 ft 6 kts 192°
2026-04-24 09:52 18.57989 73.91006 1924 ft 0 kts 191°